AF1HS Weather Reports


Display with metric or nautical units.
time (UTC)temp
F
wind
direction
speed
MPH
gust
MPH
rain 1hr
in
rain 24hr
in
rain mn
in
humidity
%
barometer
mb
20171118194059 48 150 0.0 0.0 0.00 0.00 0.00 71 1003.0
20171118193601 48 148 0.0 0.0 0.00 0.00 0.00 70 1003.0
20171118193103 47 174 0.0 0.0 0.00 0.00 0.00 69 1003.0
20171118192559 47 161 0.0 0.0 0.00 0.00 0.00 67 1003.0
20171118192112 47 179 0.0 0.0 0.00 0.00 0.00 67 1003.0
20171118191600 47 147 0.0 0.0 0.00 0.00 0.00 66 1003.5
20171118191058 47 139 0.0 0.0 0.00 0.00 0.00 66 1004.0
20171118190602 47 160 0.0 0.0 0.00 0.00 0.00 66 1004.0
20171118190103 46 156 0.0 0.0 0.00 0.00 0.00 65 1004.0
20171118185556 46 129 0.0 0.0 0.00 0.00 0.00 63 1004.0
20171118185105 46 214 0.0 0.0 0.00 0.00 0.00 63 1004.0
20171118184601 45 221 0.0 0.0 0.00 0.00 0.00 63 1004.0
20171118184102 45 222 0.0 0.0 0.00 0.00 0.00 62 1004.0
20171118183601 45 222 0.0 0.0 0.00 0.00 0.00 62 1004.0
20171118183104 45 222 0.0 0.0 0.00 0.00 0.00 62 1004.6
20171118182559 45 222 0.0 0.0 0.00 0.00 0.00 61 1005.0
20171118182102 45 222 0.0 0.0 0.00 0.00 0.00 60 1005.0
20171118181559 45 222 0.0 0.0 0.00 0.00 0.00 59 1005.0
20171118181104 45 222 0.0 0.0 0.00 0.04 0.00 60 1005.0
20171118180601 45 222 0.0 0.0 0.00 0.04 0.00 60 1005.0
20171118180103 45 222 0.0 0.0 0.00 0.04 0.00 61 1005.0
20171118175558 45 222 0.0 0.0 0.00 0.04 0.00 62 1005.0
20171118175105 44 221 0.0 0.0 0.00 0.04 0.00 62 1005.0
20171118174603 43 222 0.0 0.0 0.00 0.04 0.00 62 1005.5
20171118174104 43 221 0.0 0.0 0.00 0.04 0.00 62 1006.0
20171118173601 42 222 0.0 0.0 0.00 0.04 0.00 60 1006.0
20171118173108 42 222 0.0 0.0 0.00 0.04 0.00 60 1006.0
20171118172558 42 222 0.0 0.0 0.00 0.04 0.00 59 1006.0
20171118172105 42 222 0.0 0.0 0.00 0.04 0.00 58 1006.0
20171118171557 41 222 0.0 0.0 0.00 0.04 0.00 59 1006.4
20171118171100 41 222 0.0 0.0 0.00 0.04 0.00 59 1007.0
20171118170602 41 222 0.0 0.0 0.00 0.04 0.00 60 1007.0
20171118170102 40 222 0.0 0.0 0.00 0.04 0.00 61 1007.0
20171118165557 39 222 0.0 0.0 0.00 0.04 0.00 61 1007.0
20171118165102 39 222 0.0 0.0 0.00 0.04 0.00 61 1007.0
20171118164557 38 221 0.0 0.0 0.00 0.04 0.00 61 1007.0
20171118164101 38 222 0.0 0.0 0.00 0.04 0.00 60 1007.0
20171118163601 38 222 0.0 0.0 0.00 0.04 0.00 63 1007.0
20171118163103 38 222 0.0 0.0 0.00 0.04 0.00 64 1007.5
20171118162559 38 222 0.0 0.0 0.00 0.04 0.00 64 1008.0
20171118162103 37 222 0.0 0.0 0.00 0.04 0.00 64 1008.0
20171118161559 36 222 0.0 0.0 0.00 0.04 0.00 63 1008.0
20171118161103 36 222 0.0 0.0 0.00 0.04 0.00 62 1008.0
20171118160559 36 222 0.0 0.0 0.00 0.04 0.00 63 1008.0
20171118160100 35 222 0.0 0.0 0.00 0.04 0.00 65 1008.5
20171118155600 35 221 0.0 0.0 0.00 0.04 0.00 65 1009.0
20171118155107 35 221 0.0 0.0 0.00 0.04 0.00 66 1009.0
20171118154557 35 222 0.0 0.0 0.00 0.04 0.00 66 1009.0
20171118154100 35 222 0.0 0.0 0.00 0.04 0.00 66 1009.0
20171118153816 35 222 0.0 0.0 0.00 0.04 0.00 67 1009.3
20171118152702 34 222 0.0 0.0 0.00 0.04 0.00 66 1010.0
20171118152220 34 221 0.0 0.0 0.00 0.04 0.00 66 1010.0
20171118151152 34 222 0.0 0.0 0.00 0.04 0.00 69 1010.0
20171118150718 33 222 0.0 0.0 0.00 0.04 0.00 73 1010.0
20171118145645 32 222 0.0 0.0 0.00 0.04 0.00 77 1010.0
20171118144648 32 221 0.0 0.0 0.00 0.04 0.00 79 1010.0
20171118144231 31 222 0.0 0.0 0.00 0.04 0.00 80 1010.0
20171118143150 31 222 0.0 0.0 0.00 0.04 0.00 82 1010.0
20171118142140 29 221 0.0 0.0 0.00 0.04 0.00 83 1010.0
20171118140645 28 222 0.0 0.0 0.00 0.04 0.00 84 1010.0
20171118135641 28 222 0.0 0.0 0.00 0.04 0.00 85 1011.0
20171118134645 28 222 0.0 0.0 0.00 0.04 0.00 87 1011.0
20171118133651 27 222 0.0 0.0 0.00 0.04 0.00 88 1011.0
20171118132643 27 222 0.0 0.0 0.00 0.04 0.00 88 1011.0
20171118131652 26 222 0.0 0.0 0.00 0.04 0.00 89 1011.6
20171118130215 25 222 0.0 0.0 0.00 0.04 0.00 88 1012.0
20171118125718 24 222 0.0 0.0 0.00 0.04 0.00 87 1011.0
20171118124335 24 221 0.0 0.0 0.00 0.04 0.00 86 1011.0
20171118123202 23 222 0.0 0.0 0.00 0.04 0.00 85 1011.0
20171118122148 22 222 0.0 0.0 0.00 0.04 0.00 85 1011.0
20171118121155 22 221 0.0 0.0 0.00 0.04 0.00 84 1012.0
20171118120337 21 221 0.0 0.0 0.00 0.04 0.00 83 1012.0
20171118115152 21 222 0.0 0.0 0.00 0.04 0.00 83 1012.0
20171118114720 21 222 0.0 0.0 0.00 0.04 0.00 83 1012.0
20171118113655 21 221 0.0 0.0 0.00 0.04 0.00 83 1012.0
20171118112637 21 222 0.0 0.0 0.00 0.04 0.00 82 1012.0
20171118111635 21 221 0.0 0.0 0.00 0.04 0.00 82 1012.0
20171118110651 21 222 0.0 0.0 0.00 0.04 0.00 82 1012.0
20171118105640 21 222 0.0 0.0 0.00 0.04 0.00 81 1012.0
20171118104633 22 222 0.0 0.0 0.00 0.04 0.00 81 1012.0
20171118103703 22 222 0.0 0.0 0.00 0.04 0.00 81 1012.0
20171118102647 22 222 0.0 0.0 0.00 0.04 0.00 81 1012.0
20171118101150 22 222 0.0 0.0 0.00 0.04 0.00 80 1012.0
20171118100138 22 222 0.0 0.0 0.00 0.04 0.00 80 1012.0
20171118095256 22 222 0.0 0.0 0.00 0.04 0.00 80 1012.0
20171118094137 22 222 0.0 0.0 0.00 0.04 0.00 80 1012.0
20171118093216 22 222 0.0 0.0 0.00 0.04 0.00 79 1012.0
20171118092728 22 222 0.0 0.0 0.00 0.04 0.00 79 1012.0
20171118091700 22 222 0.0 0.0 0.00 0.04 0.00 79 1012.0
20171118090639 22 222 0.0 0.0 0.00 0.04 0.00 78 1012.0
20171118085648 22 222 0.0 0.0 0.00 0.04 0.00 78 1012.0
20171118084640 22 221 0.0 0.0 0.00 0.04 0.00 78 1012.3
20171118083648 22 222 0.0 0.0 0.00 0.04 0.00 78 1013.0
20171118083219 22 222 0.0 0.0 0.00 0.04 0.00 78 1013.0
20171118082143 23 221 0.0 0.0 0.00 0.04 0.00 78 1013.0
20171118081150 23 222 0.0 0.0 0.00 0.04 0.00 78 1013.0
20171118080156 23 222 0.0 0.0 0.00 0.04 0.00 78 1012.9
20171118075149 23 222 0.0 0.0 0.00 0.04 0.00 78 1012.0
20171118074141 23 222 0.0 0.0 0.00 0.04 0.00 77 1013.0
20171118073239 23 222 0.0 0.0 0.00 0.04 0.00 77 1013.0
20171118072153 23 222 0.0 0.0 0.00 0.04 0.00 75 1013.0
20171118071142 23 222 0.0 0.0 0.00 0.04 0.00 73 1013.0
20171118070144 23 222 0.0 0.0 0.00 0.04 0.00 73 1013.0
20171118065137 24 222 0.0 0.0 0.00 0.04 0.00 72 1013.0
20171118064143 24 222 0.0 0.0 0.00 0.04 0.00 72 1014.0
20171118063150 24 222 0.0 0.0 0.00 0.04 0.00 72 1014.0
20171118062138 24 222 0.0 0.0 0.00 0.04 0.00 72 1014.0
20171118061143 24 222 0.0 0.0 0.00 0.04 0.00 71 1013.0
20171118055144 25 221 0.0 0.0 0.00 0.04 0.00 71 1013.0
20171118054146 25 222 0.0 0.0 0.00 0.04 0.00 70 1013.0
20171118053140 25 222 0.0 0.0 0.00 0.04 0.00 70 1013.0
20171118052150 24 222 0.0 0.0 0.00 0.04 0.00 70 1013.0
20171118051517 25 222 0.0 0.0 0.00 0.04 0.00 69 1013.0
20171118051021 25 222 0.0 0.0 0.00 0.04 0.00 69 1014.0
20171118050601 25 222 0.0 0.0 0.00 0.04 0.00 68 1014.0
20171118050259 25 222 0.0 0.0 0.00 0.04 0.00 68 1014.0
20171118045610 25 222 0.0 0.0 0.00 0.04 0.04 68 1014.0
20171118045203 26 222 0.0 0.0 0.00 0.04 0.04 68 1014.0
20171118044121 26 222 0.0 0.0 0.00 0.04 0.04 67 1014.0
20171118043638 26 222 0.0 0.0 0.00 0.04 0.04 67 1014.0
20171118043157 26 222 0.0 0.0 0.00 0.04 0.04 67 1014.0
20171118042641 27 222 0.0 0.0 0.00 0.04 0.04 67 1014.0
20171118042200 27 222 0.0 0.0 0.00 0.04 0.04 67 1014.0
20171118041601 26 218 0.0 0.0 0.00 0.04 0.04 68 1013.4
20171118041201 26 227 0.0 0.0 0.00 0.04 0.04 68 1013.0
20171118040607 26 289 0.0 0.0 0.00 0.04 0.04 67 1013.0
20171118040220 26 306 0.0 0.0 0.00 0.04 0.04 67 1013.0
20171118035602 27 306 0.0 0.0 0.00 0.04 0.04 66 1013.0
20171118035116 27 306 0.0 0.0 0.00 0.04 0.04 66 1013.0
20171118034611 27 306 0.0 0.0 0.00 0.04 0.04 66 1013.3
20171118034112 27 306 0.0 0.0 0.00 0.04 0.04 65 1014.0
20171118033114 28 306 0.0 0.0 0.00 0.04 0.04 64 1013.7
20171118032602 28 306 0.0 0.0 0.00 0.04 0.04 64 1013.0
20171118032120 28 306 0.0 0.0 0.00 0.04 0.04 64 1013.0
20171118031600 28 306 0.0 0.0 0.00 0.04 0.04 64 1013.0
20171118031258 27 255 0.0 0.0 0.00 0.04 0.04 64 1013.0
20171118030610 27 226 0.0 0.0 0.00 0.04 0.04 64 1013.0
20171118030157 27 226 0.0 0.0 0.00 0.04 0.04 64 1013.0
20171118025607 28 226 0.0 0.0 0.00 0.04 0.04 64 1013.0
20171118025131 28 226 0.0 0.0 0.00 0.04 0.04 63 1013.0
20171118024657 28 226 0.0 0.0 0.00 0.04 0.04 62 1013.0
20171118024114 28 226 0.0 0.0 0.00 0.04 0.04 63 1013.0
20171118023600 28 226 0.0 0.0 0.00 0.04 0.04 60 1013.1
20171118023214 28 226 0.0 0.0 0.00 0.04 0.04 58 1013.6
20171118022601 28 226 0.0 0.0 0.00 0.04 0.04 58 1014.0
20171118022114 29 226 0.0 0.0 0.00 0.04 0.04 56 1014.0
20171118021655 29 226 0.0 0.0 0.00 0.04 0.04 56 1013.7
20171118021200 29 226 0.0 0.0 0.00 0.04 0.04 56 1013.0
20171118020702 29 226 0.0 0.0 0.00 0.04 0.04 55 1013.0
20171118015658 30 226 0.0 0.0 0.00 0.04 0.04 52 1014.0
20171118015115 30 226 0.0 0.0 0.00 0.04 0.04 50 1014.0
20171118014633 31 226 0.0 0.0 0.00 0.04 0.04 50 1014.0
20171118014103 31 226 0.0 0.0 0.00 0.04 0.04 50 1014.0
20171118013601 31 226 0.0 0.0 0.00 0.04 0.04 49 1014.0
20171118013104 31 226 0.0 0.0 0.00 0.04 0.04 48 1014.0
20171118012639 31 226 0.0 0.0 0.00 0.04 0.04 48 1014.0
20171118012107 31 226 0.0 0.0 0.00 0.04 0.04 48 1014.0
20171118011736 31 226 0.0 0.0 0.00 0.04 0.04 48 1014.0
20171118011103 31 226 0.0 0.0 0.00 0.04 0.04 48 1014.0
20171118010559 32 262 0.0 0.0 0.00 0.04 0.04 48 1014.0
20171118010157 32 314 0.0 0.0 0.00 0.04 0.04 47 1014.0
20171118005558 33 316 0.0 0.0 0.00 0.04 0.04 46 1014.0
20171118005113 33 317 0.0 0.0 0.00 0.04 0.04 45 1014.0
20171118004608 33 317 0.0 0.0 0.00 0.04 0.04 45 1013.8
20171118004112 33 316 0.0 0.0 0.00 0.04 0.04 45 1013.0
20171118003559 33 316 0.0 0.0 0.00 0.04 0.04 45 1013.0
20171118003104 34 317 0.0 0.0 0.00 0.04 0.04 45 1013.0
20171118002601 34 316 0.0 0.0 0.00 0.04 0.04 44 1013.0
20171118002114 34 316 0.0 0.0 0.00 0.04 0.04 44 1013.1
20171118001603 34 317 0.0 0.0 0.00 0.04 0.04 44 1013.7
20171118001108 34 317 0.0 0.0 0.00 0.04 0.04 44 1014.0
20171118000655 34 316 0.0 0.0 0.00 0.04 0.04 44 1014.0
20171118000114 35 317 0.0 0.0 0.00 0.04 0.04 44 1013.5
20171117235602 35 317 0.0 0.0 0.00 0.04 0.04 44 1013.0
20171117235102 35 317 0.0 0.0 0.00 0.04 0.04 44 1013.0
20171117234616 35 319 0.0 0.0 0.00 0.04 0.04 44 1013.4
20171117234100 35 336 0.0 0.0 0.00 0.04 0.04 44 1014.0
20171117233701 36 320 0.0 0.0 0.00 0.04 0.04 44 1014.0
20171117233201 36 291 0.0 0.0 0.00 0.04 0.04 44 1014.0
20171117232654 36 291 0.0 0.0 0.00 0.04 0.04 44 1014.0
20171117232102 37 291 0.0 0.0 0.00 0.04 0.04 44 1014.0
20171117231655 37 291 0.0 0.0 0.00 0.04 0.04 44 1013.4
20171117231103 37 291 0.0 0.0 0.00 0.04 0.04 44 1013.0
20171117230600 37 290 0.0 0.0 0.00 0.04 0.04 44 1013.0
20171117230109 37 270 0.0 0.0 0.00 0.04 0.04 43 1013.0
20171117225602 38 290 0.0 0.0 0.00 0.04 0.04 43 1013.0
20171117225114 38 312 0.0 0.0 0.00 0.04 0.04 43 1013.0
20171117224601 38 312 0.0 0.0 0.00 0.04 0.04 43 1013.0
20171117224114 38 309 0.0 0.0 0.00 0.04 0.04 43 1013.0
20171117223603 38 318 0.0 0.0 0.00 0.04 0.04 43 1013.0
20171117223102 38 310 0.0 0.0 0.00 0.04 0.04 43 1013.0
20171117222559 38 312 0.0 0.0 0.00 0.04 0.04 43 1013.0
20171117222100 39 307 0.0 0.0 0.00 0.04 0.04 43 1013.0
20171117221603 39 306 0.0 0.0 0.00 0.04 0.04 43 1013.0
20171117221103 39 310 0.0 0.0 0.00 0.04 0.04 43 1013.0
20171117220559 39 308 0.0 0.0 0.00 0.04 0.04 43 1013.0
20171117220059 39 320 0.0 0.0 0.00 0.04 0.04 43 1013.0
20171117215559 39 304 0.0 0.0 0.00 0.04 0.04 43 1013.0
20171117215113 40 301 0.0 0.0 0.00 0.04 0.04 43 1013.0
20171117214556 40 290 0.0 0.0 0.00 0.04 0.04 43 1013.0
20171117214157 40 283 0.0 0.0 0.00 0.04 0.04 43 1013.0
20171117213603 41 292 0.0 0.0 0.00 0.04 0.04 43 1013.0
20171117213106 41 305 0.0 0.0 0.00 0.04 0.04 43 1013.0
20171117212558 41 307 0.0 0.0 0.00 0.04 0.04 43 1013.0
20171117212103 42 312 0.0 0.0 0.00 0.04 0.04 43 1013.0
20171117211602 42 325 0.0 0.0 0.00 0.04 0.04 43 1012.4
20171117211103 42 306 0.0 0.0 0.00 0.04 0.04 43 1012.0
20171117210559 42 290 0.0 0.0 0.00 0.04 0.04 43 1012.0
20171117210203 42 307 0.0 0.0 0.00 0.04 0.04 43 1012.5
20171117205600 42 298 0.0 0.0 0.00 0.04 0.04 43 1013.0
20171117205103 43 302 0.0 0.0 0.00 0.04 0.04 43 1013.0
20171117204602 43 297 0.0 0.0 0.00 0.04 0.04 42 1012.5
20171117204103 43 314 0.0 0.0 0.00 0.04 0.04 42 1012.0
20171117203558 44 311 0.0 0.0 0.00 0.04 0.04 42 1012.0
20171117203105 44 284 0.0 0.0 0.00 0.04 0.04 42 1012.0
20171117202559 45 314 0.0 0.0 0.00 0.04 0.04 42 1012.0
20171117202103 45 329 0.0 0.0 0.00 0.04 0.04 42 1012.0
20171117201556 45 296 0.0 0.0 0.00 0.04 0.04 42 1012.0
20171117201109 46 311 0.0 0.0 0.00 0.04 0.04 42 1012.0
20171117200601 46 297 0.0 0.0 0.00 0.04 0.04 42 1012.0
20171117200101 46 299 0.0 0.0 0.00 0.04 0.04 42 1012.0
20171117195559 46 306 0.0 0.0 0.00 0.04 0.04 42 1012.0
20171117195102 47 295 0.0 0.0 0.00 0.04 0.04 41 1012.0
20171117194559 47 294 0.0 0.0 0.00 0.04 0.04 41 1012.0